Content
SEND FEEDBACK

Daily
Averages
Monthly
Summary
Spain

MÁLAGA, SPAIN


Home > Europe > Spain
Elevation: 23 feet     Latitude: 36 40N     Longitude: 004 29W

WEATHER
 
SELECT A DAY
Number of Records: 318,163;   Date Range: 7/1/96 - 7/23/14
 
SHARE

PRINT THIS DATA

[ ← Previous Day ]
WEATHER ALMANAC - JANUARY 24, 2013
[ Next Day → ]
[ °C ]   °F
Weather ElementAverageHighLow
Temperature54.9 °F62.6 °F (11:00 am)46.4 °F (12:30 am)
Dewpoint47.1 °F51.8 °F (2:30 pm)41 °F (12:30 am)
Humidity74.8 %88 % (2:30 pm)53 % (7:00 pm)
Barometer30.06 in30.17 in (1:00 am)29.98 in (6:00 pm)
Wind Speed7.2 mph24.2 mph (12:00 pm)
Wind Gust34.5 mph (12:07 pm)
Weather ElementAverage
Visibility6.7 mi
Wind DirectionSSW (209.4 °)

Weather ElementTotal
Precipitation---
Heating Degree Days10.5 (Base 65)
Growing Degree Days4.5 (Base 50)
Averaged from 54 records on January 24, 2013
WEATHER CONDITIONS BREAKOUT
WIND DIRECTION BREAKOUT
WEATHER BY HOUR - JANUARY 24, 2013
[ °C ]   °F
Local TimeTemperatureDewpointHumidityBarometerVisibilityWind DirectionWind SpeedGust SpeedPrecipitationEventsConditions
12:30 AM46.4 °F41.0 °F81 %30.15 in6.2 miVariable1.2 mphMostly Cloudy
1:00 AM49.0 °F42.0 °F68 %30.17 in12.0 mi°1.2 mphMostly Cloudy
1:00 AM48.2 °F41.0 °F76 %30.15 in6.2 miVariable1.2 mphMostly Cloudy
1:30 AM48.2 °F42.8 °F82 %30.15 in6.2 miCalmMostly Cloudy
2:00 AM50.0 °F42.8 °F76 %30.12 in6.2 miSouth (170°)1.2 mphMostly Cloudy
2:30 AM50.0 °F42.8 °F76 %30.09 in6.2 miCalmScattered Clouds
3:00 AM50.0 °F42.8 °F76 %30.09 in6.2 miVariable1.2 mphMostly Cloudy
3:30 AM50.0 °F44.6 °F82 %30.09 in6.2 miCalmScattered Clouds
4:00 AM51.8 °F44.6 °F76 %30.09 in6.2 miCalmMostly Cloudy
4:30 AM53.6 °F46.4 °F77 %30.06 in6.2 miVariable2.3 mphMostly Cloudy
5:00 AM55.4 °F46.4 °F72 %30.06 in6.2 miSSW (210°)3.5 mphMostly Cloudy
5:30 AM53.6 °F44.6 °F72 %30.06 in6.2 miVariable1.2 mphMostly Cloudy
6:00 AM51.8 °F46.4 °F82 %30.04 in6.2 miVariable1.2 mphMostly Cloudy
6:30 AM51.8 °F46.4 °F82 %30.04 in6.2 miVariable1.2 mphMostly Cloudy
7:00 AM53.0 °F46.0 °F70 %30.05 in12.0 miCalmMostly Cloudy
7:00 AM51.8 °F46.4 °F82 %30.04 in6.2 miCalmMostly Cloudy
7:30 AM51.8 °F46.4 °F82 %30.04 in6.2 miCalmMostly Cloudy
8:00 AM55.4 °F46.4 °F72 %30.04 in6.2 miCalmScattered Clouds
8:30 AM55.4 °F46.4 °F72 %30.04 in6.2 miCalmMostly Cloudy
9:00 AM57.2 °F46.4 °F67 %30.04 in6.2 miSSE (160°)1.2 mphScattered Clouds
9:30 AM59.0 °F44.6 °F59 %30.04 in6.2 miWest (280°)5.8 mphScattered Clouds
10:00 AM59.0 °F46.4 °F63 %30.04 in6.2 miNW (310°)6.9 mphScattered Clouds
10:30 AM60.8 °F48.2 °F63 %30.06 in6.2 miNW (310°)9.2 mphScattered Clouds
11:00 AM62.6 °F50.0 °F63 %30.06 in6.2 miWNW (300°)9.2 mphScattered Clouds
11:30 AM62.6 °F48.2 °F59 %30.06 in6.2 miNNW (330°)12.7 mphScattered Clouds
12:00 PM57.2 °F46.4 °F67 %30.09 in6.2 miNNW (330°)24.2 mphRainLight Rain
12:07 PM57.2 °F48.2 °F72 %30.09 in6.2 miNNW (330°)21.9 mph34.5 mphRainRain Showers
12:30 PM55.4 °F50.0 °F82 %30.09 in6.2 miNNW (340°)16.1 mphRainRain Showers
12:46 PM55.4 °F50.0 °F82 %30.09 in6.2 miNNW (340°)11.5 mphMostly Cloudy
1:00 PM56.0 °F49.0 °F69 %30.11 in16.0 miNorth (350°)9.2 mphRainLight Rain Showers
1:00 PM55.4 °F50.0 °F82 %30.09 in6.2 miNorth (350°)9.2 mphMostly Cloudy
1:30 PM57.2 °F48.2 °F72 %30.09 in6.2 miNW (320°)6.9 mphRainLight Rain
2:00 PM55.4 °F50.0 °F82 %30.06 in6.2 miNW (320°)12.7 mphMostly Cloudy
2:15 PM55.4 °F50.0 °F82 %30.06 in4.3 miNW (320°)11.5 mphRainRain Showers
2:30 PM55.4 °F51.8 °F88 %30.06 in6.2 miNW (320°)10.4 mphRainLight Rain Showers
3:00 PM55.4 °F51.8 °F88 %30.04 in6.2 miNW (320°)12.7 mphRainLight Rain
3:30 PM57.2 °F51.8 °F82 %30.04 in6.2 miNW (310°)10.4 mphMostly Cloudy
4:00 PM57.2 °F50.0 °F77 %30.04 in6.2 miNW (310°)15.0 mph27.6 mphMostly Cloudy
4:30 PM57.2 °F50.0 °F77 %30.01 in6.2 miNW (310°)12.7 mphMostly Cloudy
5:00 PM57.2 °F50.0 °F77 %30.01 in6.2 miNW (320°)16.1 mphMostly Cloudy
5:30 PM57.2 °F50.0 °F77 %30.01 in6.2 miNW (310°)15.0 mphScattered Clouds
6:00 PM55.4 °F50.0 °F82 %29.98 in6.2 miNW (310°)12.7 mphScattered Clouds
6:30 PM55.4 °F48.2 °F77 %29.98 in6.2 miNW (310°)12.7 mph24.2 mphScattered Clouds
7:00 PM56.0 °F44.0 °F53 %30.01 in12.0 miWNW (300°)13.8 mphPartly Cloudy
7:00 PM57.2 °F48.2 °F72 %30.01 in6.2 miWNW (300°)13.8 mphScattered Clouds
7:30 PM57.2 °F46.4 °F67 %30.01 in6.2 miWNW (300°)9.2 mphPartly Cloudy
8:00 PM55.4 °F46.4 °F72 %30.01 in6.2 miVariable2.3 mphPartly Cloudy
8:30 PM55.4 °F46.4 °F72 %30.01 in6.2 miWNW (290°)5.8 mphPartly Cloudy
9:00 PM55.4 °F48.2 °F77 %30.01 in6.2 miWNW (300°)5.8 mphPartly Cloudy
9:30 PM55.4 °F48.2 °F77 %30.01 in6.2 miWNW (300°)6.9 mphPartly Cloudy
10:00 PM55.4 °F48.2 °F77 %30.04 in6.2 miNW (310°)6.9 mphPartly Cloudy
10:30 PM55.4 °F48.2 °F77 %30.04 in6.2 miNW (310°)6.9 mphPartly Cloudy
11:00 PM55.4 °F48.2 °F77 %30.04 in6.2 miWNW (290°)9.2 mphScattered Clouds
11:30 PM55.4 °F46.4 °F72 %30.04 in6.2 miWNW (300°)6.9 mphScattered Clouds
Hourly data recorded from LEMG, located miles away from Málaga, Spain







STORIES FROM OUR PARTNERS